HS5BOG-13 Weather Reports


time (UTC)temp
F
wind
direction
speed
knots
gust
knots
rain 1hr
in
rain 24hr
in
rain mn
in
humidity
%
barometer
mb
20260505230439 82 0.0 0.0 0.00 0.00 0.00 10 992.0
20260505225431 82 0.0 0.0 0.00 0.00 0.00 10 991.9
20260505224426 82 0.0 0.0 0.00 0.00 0.00 99 991.9
20260505223420 82 0.0 0.0 0.00 0.00 0.00 10 991.7
20260505222414 82 0.0 0.0 0.00 0.00 0.00 99 991.5
20260505221409 82 0.0 0.0 0.00 0.00 0.00 98 991.5
20260505220403 82 0.0 0.0 0.00 0.00 0.00 98 991.3
20260505215338 82 0.0 0.0 0.00 0.00 0.00 98 991.0
20260505214332 82 0.0 0.0 0.00 0.00 0.00 99 990.9
20260505213326 82 0.0 0.0 0.00 0.00 0.00 98 990.8
20260505212321 83 0.0 0.0 0.00 0.00 0.00 99 990.9
20260505211316 83 0.0 0.0 0.00 0.00 0.00 98 991.0
20260505210310 83 0.0 0.0 0.00 0.00 0.00 98 990.9
20260505205305 83 0.0 0.0 0.00 0.00 0.00 98 991.1
20260505204259 83 0.0 0.0 0.00 0.00 0.00 97 991.1
20260505203253 83 0.0 0.0 0.00 0.00 0.00 97 991.1
20260505202247 83 0.0 0.0 0.00 0.00 0.00 96 991.2
20260505201242 83 0.0 0.0 0.00 0.00 0.00 95 991.1
20260505200236 83 0.0 0.0 0.00 0.00 0.00 94 991.1
20260505195231 83 0.0 0.0 0.00 0.00 0.00 93 990.9
20260505194225 83 0.0 0.0 0.00 0.00 0.00 91 990.9
20260505193220 84 0.0 0.0 0.00 0.00 0.00 91 990.9
20260505192214 84 0.0 0.0 0.00 0.00 0.00 90 990.9
20260505191209 84 0.0 0.0 0.00 0.00 0.00 90 991.0
20260505190203 84 0.0 0.0 0.00 0.00 0.00 90 991.1
20260505185157 84 0.0 0.0 0.00 0.00 0.00 91 991.2
20260505184152 84 0.0 0.0 0.00 0.00 0.00 91 991.4
20260505183146 84 0.0 0.0 0.00 0.00 0.00 91 991.4
20260505182140 84 0.0 0.0 0.00 0.00 0.00 90 991.5
20260505181135 85 0.0 0.0 0.00 0.00 0.00 89 991.7
20260505180129 85 0.0 0.0 0.00 0.00 0.00 87 991.7
20260505175123 85 0.0 0.0 0.00 0.00 0.00 86 991.9
20260505174118 85 0.0 0.0 0.00 0.00 0.00 86 992.0
20260505173112 85 0.0 0.0 0.00 0.00 0.00 86 992.2
20260505172106 85 0.0 0.0 0.00 0.00 0.00 86 992.3
20260505171101 85 0.0 0.0 0.00 0.00 0.00 86 992.3
20260505170055 85 0.0 0.0 0.00 0.00 0.00 86 992.3
20260505165050 85 0.0 0.0 0.00 0.00 0.00 85 992.3
20260505164044 85 0.0 0.0 0.00 0.00 0.00 86 992.4
20260505163039 85 0.0 0.0 0.00 0.00 0.00 89 992.6
20260505162033 85 0.0 0.0 0.00 0.00 0.00 88 992.9
20260505161027 85 0.0 0.0 0.00 0.00 0.00 87 992.8
20260505153005 85 0.0 0.0 0.00 0.00 0.00 83 992.4
20260505151959 85 0.0 0.0 0.00 0.00 0.00 82 992.5
20260505150954 85 0.0 0.0 0.00 0.00 0.00 82 992.5
20260505124834 87 0.0 0.0 0.00 0.00 0.00 82 990.1
20260505123828 87 0.0 0.0 0.00 0.00 0.00 85 990.0
20260505122822 87 0.0 0.0 0.00 0.00 0.00 83 989.8
20260505121817 87 0.0 0.0 0.00 0.00 0.00 83 989.6
20260505120811 87 0.0 0.0 0.00 0.00 0.00 82 989.6
20260505115805 87 0.0 0.0 0.00 0.00 0.00 82 989.6
20260505114800 87 0.0 0.0 0.00 0.00 0.00 80 989.5
20260505113754 87 0.0 0.0 0.00 0.00 0.00 75 989.4
20260505112748 88 0.0 0.0 0.00 0.00 0.00 76 989.3
20260505111743 87 0.0 0.0 0.00 0.00 0.00 75 989.3
20260505110737 87 0.0 0.0 0.00 0.00 0.00 71 989.3
20260505101709 88 0.0 0.0 0.00 0.00 0.00 71 989.5
20260505100704 88 0.0 0.0 0.00 0.00 0.00 71 989.4
20260505095658 87 0.0 0.0 0.00 0.00 0.00 69 989.4
20260505094652 87 0.0 0.0 0.00 0.00 0.00 70 989.3
20260505093647 87 0.0 0.0 0.00 0.00 0.00 71 989.2
20260505092641 87 0.0 0.0 0.00 0.00 0.00 70 989.2
20260505091635 87 0.0 0.0 0.00 0.00 0.00 69 989.4
20260505090630 87 0.0 0.0 0.00 0.00 0.00 69 989.6
20260505085624 87 0.0 0.0 0.00 0.00 0.00 69 989.7
20260505084619 87 0.0 0.0 0.00 0.00 0.00 70 989.9
20260505083613 87 0.0 0.0 0.00 0.00 0.00 73 990.1
20260505082609 87 0.0 0.0 0.00 0.00 0.00 73 990.4
20260505081602 87 0.0 0.0 0.00 0.00 0.00 75 990.6
20260505080556 86 0.0 0.0 0.00 0.00 0.00 76 990.8
20260505075551 86 0.0 0.0 0.00 0.00 0.00 76 991.0
20260505074545 86 0.0 0.0 0.00 0.00 0.00 77 991.3
20260505073539 86 0.0 0.0 0.00 0.00 0.00 77 991.5
20260505072534 86 0.0 0.0 0.00 0.00 0.00 77 991.7
20260505071528 86 0.0 0.0 0.00 0.00 0.00 76 992.0
20260505070523 86 0.0 0.0 0.00 0.00 0.00 78 992.0
20260505065517 85 0.0 0.0 0.00 0.00 0.00 81 992.3
20260505064511 85 0.0 0.0 0.00 0.00 0.00 82 992.5
20260505063505 85 0.0 0.0 0.00 0.00 0.00 82 992.8
20260505062500 85 0.0 0.0 0.00 0.00 0.00 82 993.0
20260505061454 85 0.0 0.0 0.00 0.00 0.00 83 993.4
20260505060449 85 0.0 0.0 0.00 0.00 0.00 83 993.7
20260505055443 85 0.0 0.0 0.00 0.00 0.00 84 994.0
20260505054438 84 0.0 0.0 0.00 0.00 0.00 85 994.3
20260505053432 84 0.0 0.0 0.00 0.00 0.00 85 994.5
20260505052426 84 0.0 0.0 0.00 0.00 0.00 85 994.6
20260505051421 84 0.0 0.0 0.00 0.00 0.00 84 995.0
20260505050415 83 0.0 0.0 0.00 0.00 0.00 86 995.4
20260505041347 83 0.0 0.0 0.00 0.00 0.00 92 995.9
20260505040341 83 0.0 0.0 0.00 0.00 0.00 93 996.0
20260505035336 82 0.0 0.0 0.00 0.00 0.00 96 996.2
20260505034330 82 0.0 0.0 0.00 0.00 0.00 96 996.2
20260505033324 82 0.0 0.0 0.00 0.00 0.00 96 996.2
20260505032319 82 0.0 0.0 0.00 0.00 0.00 96 996.3
20260505031313 82 0.0 0.0 0.00 0.00 0.00 95 996.3
20260505030308 82 0.0 0.0 0.00 0.00 0.00 95 996.5
20260505025304 82 0.0 0.0 0.00 0.00 0.00 95 996.8
20260505024256 82 0.0 0.0 0.00 0.00 0.00 95 996.7
20260505023251 82 0.0 0.0 0.00 0.00 0.00 93 996.8
20260505022245 82 0.0 0.0 0.00 0.00 0.00 93 996.8
20260505021240 82 0.0 0.0 0.00 0.00 0.00 92 996.8
20260505020234 82 0.0 0.0 0.00 0.00 0.00 92 996.8
20260505015228 82 0.0 0.0 0.00 0.00 0.00 94 996.8
20260505014223 82 0.0 0.0 0.00 0.00 0.00 95 996.7
20260505013217 81 0.0 0.0 0.00 0.00 0.00 95 996.6
20260505012212 81 0.0 0.0 0.00 0.00 0.00 95 996.5
20260505011206 81 0.0 0.0 0.00 0.00 0.00 94 996.3
20260505010201 81 0.0 0.0 0.00 0.00 0.00 95 996.2
20260505005155 81 0.0 0.0 0.00 0.00 0.00 94 995.9
20260505004149 81 0.0 0.0 0.00 0.00 0.00 95 995.9
20260505003144 81 0.0 0.0 0.00 0.00 0.00 97 995.6
20260505002138 81 0.0 0.0 0.00 0.00 0.00 99 995.4
20260505001132 80 0.0 0.0 0.00 0.00 0.00 98 995.3
20260505000127 80 0.0 0.0 0.00 0.00 0.00 98 995.2
20260504235121 80 0.0 0.0 0.00 0.00 0.00 97 995.0
20260504234116 79 0.0 0.0 0.00 0.00 0.00 96 994.9
20260504233110 80 0.0 0.0 0.00 0.00 0.00 95 994.7
20260504232105 80 0.0 0.0 0.00 0.00 0.00 95 994.5
20260504231059 80 0.0 0.0 0.00 0.00 0.00 95 994.2